EW8487 Weather Reports


time (UTC)temp
C
wind
direction
speed
KPH
gust
KPH
rain 1hr
cm
rain 24hr
cm
rain mn
cm
humidity
%
barometer
mb
20260507161003 11 151 1.6 3.2 0.00 0.76 0.76 83 1007.5
20260507155506 11 179 1.6 3.2 0.03 0.74 0.76 86 1007.9
20260507154002 10 194 1.6 3.2 0.10 0.74 0.76 93 1007.7
20260507152506 9 165 1.6 3.2 0.20 0.74 0.76 95 1007.8
20260507151003 8 131 0.0 1.6 0.33 0.74 0.76 95 1008.1
20260507145506 8 127 0.0 1.6 0.43 0.36 0.74 96 1008.4
20260507142507 8 192 0.0 1.6 0.30 0.36 0.56 95 1009.0
20260507141003 8 205 0.0 1.6 0.30 0.36 0.43 94 1009.0
20260507135506 9 223 0.0 1.6 0.05 0.05 0.28 94 1008.8
20260507134002 10 174 0.0 3.2 0.05 0.05 0.08 94 1008.7
20260507132512 10 28 0.0 0.0 0.00 0.00 0.00 93 1008.4
20260507131055 10 103 1.6 6.4 0.08 0.05 0.08 92 1008.2
20260507124055 11 95 1.6 9.7 0.00 0.00 0.00 80 1007.9
20260507122556 12 22 3.2 8.0 0.00 0.00 0.00 77 1007.9
20260507121055 18 157 1.6 6.4 0.00 0.00 0.00 48 1007.6
20260507115555 17 79 0.0 6.4 0.00 0.00 0.00 53 1007.7
20260507112554 17 179 1.6 6.4 0.00 0.00 0.00 57 1008.1
20260507111055 15 183 1.6 3.2 0.00 0.00 0.00 60 1008.3
20260507101059 14 209 1.6 3.2 0.00 0.00 0.00 66 1008.7
20260507095555 13 233 1.6 3.2 0.00 0.00 0.00 68 1008.7
20260507092633 12 217 1.6 3.2 0.00 0.00 0.00 73 1009.0
20260507091125 12 137 1.6 3.2 0.00 0.00 0.00 71 1008.9
20260507085618 12 129 0.0 3.2 0.00 0.00 0.00 74 1009.0
20260507084112 12 92 0.0 3.2 0.00 0.00 0.00 75 1009.0
20260507082603 12 186 1.6 4.8 0.00 0.00 0.00 74 1008.7
20260507081055 11 54 1.6 3.2 0.00 0.00 0.00 77 1008.9
20260507074055 10 76 1.6 3.2 0.00 0.00 0.00 85 1008.7
20260507072555 10 62 1.6 3.2 0.00 0.00 0.00 89 1008.8
20260507065555 9 223 0.0 1.6 0.00 0.00 0.00 92 1008.8
20260507064054 8 202 1.6 1.6 0.00 0.00 0.00 93 1008.6
20260507062555 8 245 0.0 1.6 0.00 0.00 0.00 94 1008.5
20260507061055 7 149 0.0 1.6 0.00 0.00 0.00 93 1008.4
20260507055555 7 222 0.0 1.6 0.00 0.00 0.00 93 1008.2
20260507054055 6 239 0.0 1.6 0.00 0.00 0.00 93 1008.2
20260507052555 6 274 0.0 1.6 0.00 0.00 0.00 93 1008.1
20260507051055 6 272 0.0 1.6 0.00 0.00 0.00 93 1008.0
20260507045556 5 254 0.0 1.6 0.00 0.00 0.00 92 1007.8
20260507044055 6 283 0.0 0.0 0.00 0.00 0.00 92 1007.8
20260507042555 6 225 0.0 1.6 0.00 0.00 0.00 92 1007.8
20260507035555 6 260 0.0 1.6 0.00 0.00 0.00 92 1007.8
20260507034055 6 275 1.6 1.6 0.00 0.00 0.00 92 1007.8
20260507032555 6 261 0.0 1.6 0.00 0.00 0.00 91 1007.7
20260507031055 7 249 0.0 1.6 0.00 0.00 0.00 92 1007.8
20260507025555 7 235 0.0 1.6 0.00 0.00 0.00 89 1007.6
20260507024059 7 316 0.0 1.6 0.00 0.00 0.00 90 1008.0
20260507022555 7 236 0.0 1.6 0.00 0.00 0.00 89 1007.7
20260507021054 8 213 0.0 1.6 0.00 0.00 0.00 88 1008.0
20260507015555 9 199 0.0 1.6 0.00 0.00 0.00 86 1007.9
20260507012555 9 188 0.0 1.6 0.00 0.00 0.00 84 1008.2
20260507011055 9 74 0.0 1.6 0.00 0.00 0.00 82 1008.2
20260507005555 9 188 0.0 1.6 0.00 0.00 0.00 81 1008.6
20260507004055 9 195 1.6 1.6 0.00 0.00 0.00 81 1008.6
20260507002554 10 198 0.0 1.6 0.00 0.00 0.00 82 1008.5
20260507001138 10 93 0.0 1.6 0.00 0.00 0.00 84 1008.7
20260506235627 10 143 0.0 3.2 0.00 0.00 0.00 87 1008.8
20260506234119 10 125 1.6 3.2 0.00 0.00 0.00 89 1008.9
20260506232612 10 57 1.6 3.2 0.00 0.00 0.00 90 1008.8
20260506225559 11 265 0.0 3.2 0.00 0.00 0.00 87 1009.0
20260506224055 11 206 0.0 1.6 0.00 0.00 0.00 85 1009.0
20260506222555 11 230 0.0 1.6 0.00 0.00 0.00 85 1009.0
20260506221055 11 227 0.0 1.6 0.00 0.00 0.00 85 1009.2
20260506215555 11 184 0.0 1.6 0.00 0.00 0.00 85 1009.1
20260506214055 11 202 0.0 1.6 0.00 0.00 0.00 85 1009.1
20260506212555 11 185 0.0 1.6 0.00 0.00 0.00 85 1009.0
20260506205555 11 211 0.0 1.6 0.00 0.00 0.00 84 1009.0
20260506204055 11 199 0.0 1.6 0.00 0.00 0.00 84 1008.9
20260506202555 11 180 1.6 3.2 0.00 0.00 0.00 85 1008.8
20260506201056 11 244 0.0 3.2 0.00 0.00 0.00 85 1008.6
20260506195556 11 180 1.6 3.2 0.00 0.00 0.00 85 1008.4
20260506194056 11 197 0.0 3.2 0.00 0.00 0.00 83 1008.6
20260506192557 11 179 0.0 4.8 0.00 0.00 0.00 84 1008.3
20260506191101 11 207 0.0 4.8 0.00 0.00 0.00 83 1008.3
20260506185557 11 280 0.0 6.4 0.00 0.00 0.00 83 1007.9
20260506184056 12 200 3.2 6.4 0.00 0.00 0.00 82 1007.8
20260506182556 12 167 3.2 4.8 0.00 0.00 0.00 82 1007.6
20260506181057 12 174 0.0 4.8 0.00 0.00 0.00 81 1007.6
20260506175557 13 213 1.6 4.8 0.00 0.00 0.00 82 1007.3
20260506174056 13 190 1.6 6.4 0.00 0.00 0.00 78 1007.3
20260506164056 15 251 1.6 6.4 0.00 0.00 0.00 70 1007.2
20260506162557 15 162 4.8 8.0 0.00 0.00 0.00 73 1007.1
20260506161056 15 160 3.2 6.4 0.00 0.00 0.00 69 1007.2